Time,TemperatureF,DewpointF,PressureIn,WindDirection,WindDirectionDegrees,WindSpeedMPH,WindSpeedGustMPH,Humidity,HourlyPrecipIn,Conditions,Clouds,dailyrainin,SoftwareType,DateUTC
2013-02-07 00:00:00,42.3,30.2,27.09,NW,315,3.5,3.5,62,0.00,RA,,0.00,WeatherDisplay:10.37,2013-02-07 06:00:00,
2013-02-07 00:05:00,42.3,30.2,27.09,NW,315,3.5,3.5,62,0.00,RA,,0.00,WeatherDisplay:10.37,2013-02-07 06:05:00,
2013-02-07 00:10:00,41.7,29.6,27.09,WNW,292,5.8,5.8,62,0.00,CLR,,0.00,WeatherDisplay:10.37,2013-02-07 06:10:00,
2013-02-07 00:15:00,41.2,29.5,27.10,NW,315,4.6,4.6,63,0.00,CLR,,0.00,WeatherDisplay:10.37,2013-02-07 06:15:00,
2013-02-07 00:20:00,41.0,29.4,27.10,WNW,292,5.8,5.8,63,0.00,CLR,,0.00,WeatherDisplay:10.37,2013-02-07 06:20:00,
2013-02-07 00:26:00,40.6,29.8,27.10,WNW,292,5.8,5.8,65,0.00,CLR,,0.00,WeatherDisplay:10.37,2013-02-07 06:26:00,
2013-02-07 00:31:00,40.3,29.4,27.10,NW,315,4.6,4.6,65,0.00,CLR,,0.00,WeatherDisplay:10.37,2013-02-07 06:31:00,
2013-02-07 00:36:00,39.7,29.3,27.11,West,270,3.5,3.5,66,0.00,CLR,,0.00,WeatherDisplay:10.37,2013-02-07 06:36:00,
2013-02-07 00:41:00,39.7,29.3,27.11,NW,315,3.5,3.5,66,0.00,CLR,,0.00,WeatherDisplay:10.37,2013-02-07 06:41:00,
2013-02-07 00:46:00,39.6,29.1,27.11,NW,315,3.5,3.5,66,0.00,CLR,,0.00,WeatherDisplay:10.37,2013-02-07 06:46:00,
2013-02-07 00:51:00,39.6,29.5,27.11,NW,315,4.6,4.6,67,0.00,CLR,,0.00,WeatherDisplay:10.37,2013-02-07 06:51:00,
2013-02-07 00:56:00,39.6,29.1,27.11,NW,315,5.8,5.8,66,0.00,CLR,,0.00,WeatherDisplay:10.37,2013-02-07 06:56:00,
2013-02-07 01:01:00,40.1,29.6,27.11,WNW,292,5.8,5.8,66,0.00,CLR,,0.00,WeatherDisplay:10.37,2013-02-07 07:01:00,
2013-02-07 01:06:00,40.6,29.8,27.11,NW,315,6.9,6.9,65,0.00,CLR,,0.00,WeatherDisplay:10.37,2013-02-07 07:06:00,
2013-02-07 01:11:00,40.6,29.8,27.12,NW,315,6.9,6.9,65,0.00,CLR,,0.00,WeatherDisplay:10.37,2013-02-07 07:11:00,
2013-02-07 01:16:00,40.6,29.8,27.11,North,0,12.7,12.7,65,0.00,CLR,,0.00,WeatherDisplay:10.37,2013-02-07 07:16:00,
2013-02-07 01:21:00,40.6,29.8,27.11,NW,315,8.1,8.1,65,0.00,CLR,,0.00,WeatherDisplay:10.37,2013-02-07 07:21:00,
2013-02-07 01:26:00,40.5,29.6,27.11,North,0,5.8,6.0,65,0.00,CLR,,0.00,WeatherDisplay:10.37,2013-02-07 07:26:00,
2013-02-07 01:31:00,40.3,29.4,27.11,WNW,292,6.0,6.0,65,0.00,CLR,,0.00,WeatherDisplay:10.37,2013-02-07 07:31:00,
2013-02-07 01:36:00,40.3,29.4,27.11,NW,315,8.1,8.1,65,0.00,CLR,,0.00,WeatherDisplay:10.37,2013-02-07 07:36:00,
2013-02-07 01:41:00,40.3,29.4,27.11,North,0,8.1,8.1,65,0.00,CLR,,0.00,WeatherDisplay:10.37,2013-02-07 07:41:00,
2013-02-07 01:46:00,40.5,29.6,27.11,WNW,292,8.1,8.1,65,0.00,CLR,,0.00,WeatherDisplay:10.37,2013-02-07 07:46:00,
2013-02-07 01:51:00,40.6,29.8,27.11,NW,315,8.1,8.1,65,0.00,CLR,,0.00,WeatherDisplay:10.37,2013-02-07 07:51:00,
2013-02-07 01:56:00,40.6,29.8,27.11,NW,315,9.2,9.2,65,0.00,CLR,,0.00,WeatherDisplay:10.37,2013-02-07 07:56:00,
2013-02-07 02:01:00,40.6,29.8,27.11,NW,315,6.9,6.9,65,0.00,CLR,,0.00,WeatherDisplay:10.37,2013-02-07 08:01:00,
2013-02-07 02:06:00,40.6,29.8,27.11,NW,315,6.9,6.9,65,0.00,CLR,,0.00,WeatherDisplay:10.37,2013-02-07 08:06:00,
2013-02-07 02:11:00,40.8,29.6,27.11,NW,315,8.1,8.1,64,0.00,CLR,,0.00,WeatherDisplay:10.37,2013-02-07 08:11:00,
2013-02-07 02:16:00,40.8,29.6,27.11,North,0,10.4,10.4,64,0.00,CLR,,0.00,WeatherDisplay:10.37,2013-02-07 08:16:00,
2013-02-07 02:21:00,40.8,29.6,27.11,NW,315,5.8,5.8,64,0.00,CLR,,0.00,WeatherDisplay:10.37,2013-02-07 08:21:00,
2013-02-07 02:26:00,41.0,29.4,27.12,NW,315,5.8,5.8,63,0.00,CLR,,0.00,WeatherDisplay:10.37,2013-02-07 08:26:00,
2013-02-07 02:31:00,41.0,29.4,27.13,NW,315,5.8,5.8,63,0.00,CLR,,0.00,WeatherDisplay:10.37,2013-02-07 08:31:00,
2013-02-07 02:36:00,40.8,29.6,27.14,NW,315,5.8,5.8,64,0.00,CLR,,0.00,WeatherDisplay:10.37,2013-02-07 08:36:00,
2013-02-07 02:41:00,40.6,29.8,27.15,NW,315,6.9,6.9,65,0.00,CLR,,0.00,WeatherDisplay:10.37,2013-02-07 08:41:00,
2013-02-07 02:46:00,40.5,29.6,27.16,North,0,8.1,8.1,65,0.00,CLR,,0.00,WeatherDisplay:10.37,2013-02-07 08:46:00,
2013-02-07 02:51:00,40.3,29.8,27.16,NW,315,6.9,6.9,66,0.00,CLR,,0.00,WeatherDisplay:10.37,2013-02-07 08:51:00,
2013-02-07 02:56:00,39.9,29.5,27.16,WNW,292,6.9,6.9,66,0.00,CLR,,0.00,WeatherDisplay:10.37,2013-02-07 08:56:00,
2013-02-07 03:01:00,39.7,29.7,27.16,West,270,5.8,5.8,67,0.00,CLR,,0.00,WeatherDisplay:10.37,2013-02-07 09:01:00,
2013-02-07 03:06:00,39.6,29.5,27.16,NW,315,4.6,4.6,67,0.00,CLR,,0.00,WeatherDisplay:10.37,2013-02-07 09:06:00,
2013-02-07 03:11:00,39.4,29.7,27.17,NW,315,5.4,5.4,68,0.00,CLR,,0.00,WeatherDisplay:10.37,2013-02-07 09:11:00,
2013-02-07 03:16:00,39.4,29.7,27.17,NW,315,5.8,5.8,68,0.00,CLR,,0.00,WeatherDisplay:10.37,2013-02-07 09:16:00,
2013-02-07 03:21:00,39.4,29.7,27.17,NW,315,6.9,6.9,68,0.00,CLR,,0.00,WeatherDisplay:10.37,2013-02-07 09:21:00,
2013-02-07 03:26:00,39.2,29.9,27.17,NW,315,6.9,6.9,69,0.00,CLR,,0.00,WeatherDisplay:10.37,2013-02-07 09:26:00,
2013-02-07 03:31:00,38.8,29.9,27.17,NW,315,5.8,5.8,70,0.00,CLR,,0.00,WeatherDisplay:10.37,2013-02-07 09:31:00,
2013-02-07 03:36:00,38.7,29.7,27.17,NW,315,5.8,5.8,70,0.00,CLR,,0.00,WeatherDisplay:10.37,2013-02-07 09:36:00,
2013-02-07 03:41:00,38.5,29.5,27.17,West,270,3.5,3.5,70,0.00,CLR,,0.00,WeatherDisplay:10.37,2013-02-07 09:41:00,
2013-02-07 03:46:00,38.1,29.5,27.17,NW,315,2.3,2.3,71,0.00,CLR,,0.00,WeatherDisplay:10.37,2013-02-07 09:46:00,
2013-02-07 03:51:00,37.8,29.2,27.17,NW,315,3.5,3.5,71,0.00,CLR,,0.00,WeatherDisplay:10.37,2013-02-07 09:51:00,
2013-02-07 03:56:00,37.4,29.2,27.16,NW,315,5.8,5.8,72,0.00,CLR,,0.00,WeatherDisplay:10.37,2013-02-07 09:56:00,
2013-02-07 04:01:00,37.2,27.6,27.17,NW,315,5.8,5.8,68,0.00,CLR,,0.00,WeatherDisplay:10.37,2013-02-07 10:01:00,
2013-02-07 04:06:00,36.9,27.6,27.17,NW,315,5.8,5.8,69,0.00,CLR,,0.00,WeatherDisplay:10.37,2013-02-07 10:06:00,
2013-02-07 04:11:00,36.7,27.8,27.17,West,270,5.8,5.8,70,0.00,CLR,,0.00,WeatherDisplay:10.37,2013-02-07 10:11:00,
2013-02-07 04:16:00,36.3,27.8,27.17,WNW,292,4.6,4.6,71,0.00,CLR,,0.00,WeatherDisplay:10.37,2013-02-07 10:16:00,
2013-02-07 04:22:00,36.0,27.5,27.17,North,0,4.6,4.6,71,0.00,CLR,,0.00,WeatherDisplay:10.37,2013-02-07 10:22:00,
2013-02-07 04:27:00,35.8,27.3,27.16,WNW,292,3.5,3.5,71,0.00,CLR,,0.00,WeatherDisplay:10.37,2013-02-07 10:27:00,
2013-02-07 04:32:00,35.6,27.1,27.17,NW,315,4.6,4.6,71,0.00,CLR,,0.00,WeatherDisplay:10.37,2013-02-07 10:32:00,
2013-02-07 04:37:00,35.4,27.6,27.17,NW,315,4.6,4.6,73,0.00,CLR,,0.00,WeatherDisplay:10.37,2013-02-07 10:37:00,
2013-02-07 04:42:00,35.2,27.4,27.17,NW,315,5.8,5.8,73,0.00,CLR,,0.00,WeatherDisplay:10.37,2013-02-07 10:42:00,
2013-02-07 04:47:00,35.1,27.3,27.16,NW,315,4.5,4.5,73,0.00,CLR,,0.00,WeatherDisplay:10.37,2013-02-07 10:47:00,
2013-02-07 04:52:00,34.9,27.4,27.16,NW,315,4.6,4.6,74,0.00,CLR,,0.00,WeatherDisplay:10.37,2013-02-07 10:52:00,
2013-02-07 04:57:00,34.7,27.3,27.15,NW,315,3.8,3.8,74,0.00,CLR,,0.00,WeatherDisplay:10.37,2013-02-07 10:57:00,
2013-02-07 05:02:00,34.5,27.1,27.16,NW,315,5.8,5.8,74,0.00,CLR,,0.00,WeatherDisplay:10.37,2013-02-07 11:02:00,
2013-02-07 05:07:00,34.5,27.4,27.16,North,0,4.6,4.6,75,0.00,CLR,,0.00,WeatherDisplay:10.37,2013-02-07 11:07:00,
2013-02-07 05:12:00,34.3,27.2,27.16,WNW,292,3.5,3.5,75,0.00,CLR,,0.00,WeatherDisplay:10.37,2013-02-07 11:12:00,
2013-02-07 05:17:00,34.2,27.1,27.16,NW,315,3.5,3.5,75,0.00,CLR,,0.00,WeatherDisplay:10.37,2013-02-07 11:17:00,
2013-02-07 05:22:00,34.3,27.6,27.16,NW,315,4.6,4.6,76,0.00,CLR,,0.00,WeatherDisplay:10.37,2013-02-07 11:22:00,
2013-02-07 05:27:00,34.3,27.6,27.16,NW,315,3.5,3.5,76,0.00,CLR,,0.00,WeatherDisplay:10.37,2013-02-07 11:27:00,
2013-02-07 05:32:00,34.3,27.6,27.16,North,0,2.3,2.3,76,0.00,CLR,,0.00,WeatherDisplay:10.37,2013-02-07 11:32:00,
2013-02-07 05:37:00,34.2,27.4,27.16,North,0,2.3,2.3,76,0.00,CLR,,0.00,WeatherDisplay:10.37,2013-02-07 11:37:00,
2013-02-07 05:42:00,33.6,26.9,27.16,North,0,1.1,0.0,76,0.00,CLR,,0.00,WeatherDisplay:10.37,2013-02-07 11:42:00,
2013-02-07 05:47:00,33.3,26.5,27.17,North,0,2.3,0.0,76,0.00,CLR,,0.00,WeatherDisplay:10.37,2013-02-07 11:47:00,
2013-02-07 05:52:00,32.9,26.2,27.17,NW,315,0.0,0.0,76,0.00,CLR,,0.00,WeatherDisplay:10.37,2013-02-07 11:52:00,
2013-02-07 05:57:00,32.7,26.0,27.17,NW,315,0.0,0.0,76,0.00,CLR,,0.00,WeatherDisplay:10.37,2013-02-07 11:57:00,
2013-02-07 06:02:00,32.4,25.6,27.17,NW,315,0.0,0.0,76,0.00,CLR,,0.00,WeatherDisplay:10.37,2013-02-07 12:02:00,
2013-02-07 06:07:00,32.0,25.3,27.17,North,0,0.0,0.0,76,0.00,CLR,,0.00,WeatherDisplay:10.37,2013-02-07 12:07:00,
2013-02-07 06:12:00,31.6,25.3,27.17,NW,315,1.1,0.0,77,0.00,CLR,,0.00,WeatherDisplay:10.37,2013-02-07 12:12:00,
2013-02-07 06:17:00,31.6,25.6,27.17,NW,315,1.1,0.0,78,0.00,CLR,,0.00,WeatherDisplay:10.37,2013-02-07 12:17:00,
2013-02-07 06:22:00,31.6,25.6,27.17,NW,315,1.1,0.0,78,0.00,CLR,,0.00,WeatherDisplay:10.37,2013-02-07 12:22:00,
2013-02-07 06:27:00,31.3,25.5,27.17,North,0,1.1,0.0,79,0.00,CLR,,0.00,WeatherDisplay:10.37,2013-02-07 12:27:00,
2013-02-07 06:32:00,31.1,25.3,27.17,NW,315,0.0,0.0,79,0.00,CLR,,0.00,WeatherDisplay:10.37,2013-02-07 12:32:00,
2013-02-07 06:37:00,31.1,25.7,27.17,NW,315,2.3,2.3,80,0.00,CLR,,0.00,WeatherDisplay:10.37,2013-02-07 12:37:00,
2013-02-07 06:42:00,31.1,26.0,27.17,NW,315,1.1,1.6,81,0.00,CLR,,0.00,WeatherDisplay:10.37,2013-02-07 12:42:00,
2013-02-07 06:47:00,31.3,26.4,27.18,NW,315,0.0,0.0,82,0.00,CLR,,0.00,WeatherDisplay:10.37,2013-02-07 12:47:00,
2013-02-07 06:52:00,31.5,26.6,27.18,NW,315,2.3,0.0,82,0.00,CLR,,0.00,WeatherDisplay:10.37,2013-02-07 12:52:00,
2013-02-07 06:57:00,31.6,27.1,27.18,NNW,338,2.3,2.3,83,0.00,CLR,,0.00,WeatherDisplay:10.37,2013-02-07 12:57:00,
2013-02-07 07:02:00,32.0,27.4,27.18,NW,315,3.5,3.5,83,0.00,CLR,,0.00,WeatherDisplay:10.37,2013-02-07 13:02:00,
2013-02-07 07:07:00,32.2,27.9,27.18,NW,315,4.6,4.6,84,0.00,CLR,,0.00,WeatherDisplay:10.37,2013-02-07 13:07:00,
2013-02-07 07:12:00,32.5,28.5,27.18,NW,315,3.5,3.5,85,0.00,CLR,,0.00,WeatherDisplay:10.37,2013-02-07 13:12:00,
2013-02-07 07:17:00,32.5,28.5,27.18,NW,315,2.3,2.3,85,0.00,CLR,,0.00,WeatherDisplay:10.37,2013-02-07 13:17:00,
2013-02-07 07:22:00,32.7,28.7,27.19,NW,315,3.5,3.5,85,0.00,CLR,,0.00,WeatherDisplay:10.37,2013-02-07 13:22:00,
2013-02-07 07:27:00,33.1,29.3,27.19,NW,315,3.5,3.5,86,0.00,CLR,,0.00,WeatherDisplay:10.37,2013-02-07 13:27:00,
2013-02-07 07:32:00,32.9,29.2,27.19,NW,315,5.8,5.8,86,0.00,CLR,,0.00,WeatherDisplay:10.37,2013-02-07 13:32:00,
2013-02-07 07:37:00,32.9,29.2,27.20,NW,315,4.6,4.6,86,0.00,CLR,,0.00,WeatherDisplay:10.37,2013-02-07 13:37:00,
2013-02-07 07:42:00,32.7,29.0,27.20,North,0,5.8,5.8,86,0.00,CLR,,0.00,WeatherDisplay:10.37,2013-02-07 13:42:00,
2013-02-07 07:47:00,32.5,28.8,27.20,NW,315,3.5,3.5,86,0.00,CLR,,0.00,WeatherDisplay:10.37,2013-02-07 13:47:00,
2013-02-07 07:52:00,32.2,28.2,27.20,NW,315,4.6,4.6,85,0.00,CLR,,0.00,WeatherDisplay:10.37,2013-02-07 13:52:00,
2013-02-07 07:57:00,32.0,28.0,27.21,NW,315,5.8,5.8,85,0.00,CLR,,0.00,WeatherDisplay:10.37,2013-02-07 13:57:00,
2013-02-07 08:02:00,31.8,28.1,27.21,NNW,338,4.6,4.6,86,0.00,CLR,,0.00,WeatherDisplay:10.37,2013-02-07 14:02:00,
2013-02-07 08:07:00,31.8,28.4,27.22,NW,315,4.6,4.6,87,0.00,CLR,,0.00,WeatherDisplay:10.37,2013-02-07 14:07:00,
2013-02-07 08:13:00,31.8,28.4,27.21,NW,315,5.8,5.8,87,0.00,CLR,,0.00,WeatherDisplay:10.37,2013-02-07 14:13:00,
2013-02-07 08:18:00,32.0,28.3,27.22,NW,315,5.8,5.8,86,0.00,CLR,,0.00,WeatherDisplay:10.37,2013-02-07 14:18:00,
2013-02-07 08:23:00,32.0,28.3,27.22,NW,315,5.8,5.8,86,0.00,CLR,,0.00,WeatherDisplay:10.37,2013-02-07 14:23:00,
2013-02-07 08:28:00,32.2,28.5,27.22,NW,315,5.8,5.8,86,0.00,CLR,,0.00,WeatherDisplay:10.37,2013-02-07 14:28:00,
2013-02-07 08:33:00,32.4,28.9,27.22,North,0,5.8,5.8,87,0.00,CLR,,0.00,WeatherDisplay:10.37,2013-02-07 14:33:00,
2013-02-07 08:38:00,32.7,29.3,27.23,NW,315,4.6,4.6,87,0.00,CLR,,0.00,WeatherDisplay:10.37,2013-02-07 14:38:00,
2013-02-07 08:43:00,33.1,29.6,27.23,NW,315,5.8,5.8,87,0.00,CLR,,0.00,WeatherDisplay:10.37,2013-02-07 14:43:00,
2013-02-07 08:48:00,33.3,29.8,27.23,North,0,5.8,5.8,87,0.00,CLR,,0.00,WeatherDisplay:10.37,2013-02-07 14:48:00,
2013-02-07 08:53:00,33.4,29.7,27.23,SE,135,4.6,4.6,86,0.00,CLR,,0.00,WeatherDisplay:10.37,2013-02-07 14:53:00,
2013-02-07 08:58:00,33.8,29.8,27.24,North,0,5.8,5.8,85,0.00,CLR,,0.00,WeatherDisplay:10.37,2013-02-07 14:58:00,
2013-02-07 09:03:00,34.0,29.9,27.23,NW,315,2.3,2.3,85,0.00,CLR,,0.00,WeatherDisplay:10.37,2013-02-07 15:03:00,
2013-02-07 09:08:00,34.3,30.3,27.24,NW,315,2.3,0.0,85,0.00,CLR,,0.00,WeatherDisplay:10.37,2013-02-07 15:08:00,
2013-02-07 09:13:00,34.7,30.7,27.24,NW,315,2.3,2.3,85,0.00,CLR,,0.00,WeatherDisplay:10.37,2013-02-07 15:13:00,
2013-02-07 09:18:00,35.1,30.7,27.24,NW,315,3.5,3.5,84,0.00,CLR,,0.00,WeatherDisplay:10.37,2013-02-07 15:18:00,
2013-02-07 09:23:00,35.8,31.1,27.24,North,0,1.1,1.1,83,0.00,CLR,,0.00,WeatherDisplay:10.37,2013-02-07 15:23:00,
2013-02-07 09:28:00,36.3,31.7,27.24,NW,315,2.3,2.3,83,0.00,CLR,,0.00,WeatherDisplay:10.37,2013-02-07 15:28:00,
2013-02-07 09:33:00,37.4,33.6,27.25,West,270,3.5,3.5,86,0.00,CLR,,0.00,WeatherDisplay:10.37,2013-02-07 15:33:00,
2013-02-07 09:38:00,38.1,34.0,27.25,NW,315,3.5,3.5,85,0.00,CLR,,0.00,WeatherDisplay:10.37,2013-02-07 15:38:00,
2013-02-07 09:43:00,39.2,34.2,27.24,North,0,5.8,5.8,82,0.00,CLR,,0.00,WeatherDisplay:10.37,2013-02-07 15:43:00,
2013-02-07 09:48:00,40.1,33.8,27.25,North,0,8.1,8.1,78,0.00,CLR,,0.00,WeatherDisplay:10.37,2013-02-07 15:48:00,
2013-02-07 09:53:00,40.8,33.5,27.25,NW,315,9.2,9.2,75,0.00,CLR,,0.00,WeatherDisplay:10.37,2013-02-07 15:53:00,
2013-02-07 09:58:00,41.2,32.8,27.24,NNW,338,8.1,8.1,72,0.00,CLR,,0.00,WeatherDisplay:10.37,2013-02-07 15:58:00,
2013-02-07 10:03:00,41.2,32.8,27.25,NNW,338,8.1,8.1,72,0.00,CLR,,0.00,WeatherDisplay:10.37,2013-02-07 16:03:00,
2013-02-07 10:08:00,41.9,32.8,27.25,West,270,8.1,8.1,70,0.00,CLR,,0.00,WeatherDisplay:10.37,2013-02-07 16:08:00,
2013-02-07 10:13:00,42.3,32.4,27.25,NW,315,8.1,8.1,68,0.00,CLR,,0.00,WeatherDisplay:10.37,2013-02-07 16:13:00,
2013-02-07 10:18:00,43.0,32.0,27.25,West,270,9.2,9.2,65,0.00,CLR,,0.00,WeatherDisplay:10.37,2013-02-07 16:18:00,
2013-02-07 10:23:00,43.5,32.1,27.25,NW,315,5.8,5.8,64,0.00,CLR,,0.00,WeatherDisplay:10.37,2013-02-07 16:23:00,
2013-02-07 10:28:00,43.9,32.1,27.25,West,270,8.1,8.1,63,0.00,CLR,,0.00,WeatherDisplay:10.37,2013-02-07 16:28:00,
2013-02-07 10:33:00,44.1,31.9,27.25,NW,315,8.1,8.1,62,0.00,CLR,,0.00,WeatherDisplay:10.37,2013-02-07 16:33:00,
2013-02-07 10:38:00,44.4,32.2,27.25,NW,315,5.8,5.8,62,0.00,CLR,,0.00,WeatherDisplay:10.37,2013-02-07 16:38:00,
2013-02-07 10:43:00,45.0,31.5,27.25,NW,315,6.9,6.9,59,0.00,CLR,,0.00,WeatherDisplay:10.37,2013-02-07 16:43:00,
2013-02-07 10:48:00,45.1,30.8,27.25,NW,315,4.6,4.6,57,0.00,CLR,,0.00,WeatherDisplay:10.37,2013-02-07 16:48:00,
2013-02-07 10:53:00,45.5,30.7,27.25,North,0,5.8,5.8,56,0.00,CLR,,0.00,WeatherDisplay:10.37,2013-02-07 16:53:00,
2013-02-07 10:58:00,45.7,30.4,27.25,WNW,292,5.8,5.8,55,0.00,CLR,,0.00,WeatherDisplay:10.37,2013-02-07 16:58:00,
2013-02-07 11:03:00,46.2,30.9,27.25,NW,315,5.8,5.8,55,0.00,CLR,,0.00,WeatherDisplay:10.37,2013-02-07 17:03:00,
2013-02-07 11:08:00,46.6,31.3,27.25,South,180,5.8,6.0,55,0.00,CLR,,0.00,WeatherDisplay:10.37,2013-02-07 17:08:00,
2013-02-07 11:13:00,46.6,30.3,27.25,NW,315,5.8,5.8,53,0.00,CLR,,0.00,WeatherDisplay:10.37,2013-02-07 17:13:00,
2013-02-07 11:18:00,46.9,31.1,27.25,NW,315,6.9,6.9,54,0.00,CLR,,0.00,WeatherDisplay:10.37,2013-02-07 17:18:00,
2013-02-07 11:23:00,47.3,31.0,27.25,North,0,6.9,6.9,53,0.00,CLR,,0.00,WeatherDisplay:10.37,2013-02-07 17:23:00,
2013-02-07 11:28:00,47.7,29.4,27.25,WNW,292,8.1,8.1,49,0.00,CLR,,0.00,WeatherDisplay:10.37,2013-02-07 17:28:00,
2013-02-07 11:33:00,47.8,29.1,27.25,North,0,6.9,6.9,48,0.00,CLR,,0.00,WeatherDisplay:10.37,2013-02-07 17:33:00,
2013-02-07 11:38:00,48.4,29.1,27.25,North,0,10.4,10.4,47,0.00,CLR,,0.00,WeatherDisplay:10.37,2013-02-07 17:38:00,
2013-02-07 11:43:00,48.7,29.4,27.25,NW,315,10.4,10.4,47,0.00,CLR,,0.00,WeatherDisplay:10.37,2013-02-07 17:43:00,
2013-02-07 11:48:00,48.9,29.6,27.25,North,0,6.9,6.9,47,0.00,CLR,,0.00,WeatherDisplay:10.37,2013-02-07 17:48:00,
2013-02-07 11:53:00,49.3,29.4,27.24,NW,315,5.8,5.8,46,0.00,CLR,,0.00,WeatherDisplay:10.37,2013-02-07 17:53:00,
2013-02-07 11:58:00,49.8,29.8,27.25,East,90,6.9,6.9,46,0.00,CLR,,0.00,WeatherDisplay:10.37,2013-02-07 17:58:00,
2013-02-07 12:03:00,49.8,29.8,27.25,NW,315,8.1,8.1,46,0.00,CLR,,0.00,WeatherDisplay:10.37,2013-02-07 18:03:00,
2013-02-07 12:08:00,50.0,28.9,27.24,NW,315,10.4,10.4,44,0.00,CLR,,0.00,WeatherDisplay:10.37,2013-02-07 18:08:00,
2013-02-07 12:13:00,50.2,29.1,27.24,NW,315,12.7,12.7,44,0.00,CLR,,0.00,WeatherDisplay:10.37,2013-02-07 18:13:00,
2013-02-07 12:18:00,50.4,28.7,27.24,NW,315,10.4,10.4,43,0.00,CLR,,0.00,WeatherDisplay:10.37,2013-02-07 18:18:00,
2013-02-07 12:23:00,50.7,29.0,27.24,WNW,292,8.1,8.1,43,0.00,CLR,,0.00,WeatherDisplay:10.37,2013-02-07 18:23:00,
2013-02-07 12:28:00,50.9,29.2,27.23,North,0,9.2,9.2,43,0.00,CLR,,0.00,WeatherDisplay:10.37,2013-02-07 18:28:00,
2013-02-07 12:33:00,51.1,27.6,27.23,NNW,338,9.2,9.2,40,0.00,CLR,,0.00,WeatherDisplay:10.37,2013-02-07 18:33:00,
2013-02-07 12:38:00,51.3,27.7,27.23,NW,315,9.2,9.2,40,0.00,CLR,,0.00,WeatherDisplay:10.37,2013-02-07 18:38:00,
2013-02-07 12:43:00,51.8,27.0,27.23,North,0,8.1,8.1,38,0.00,CLR,,0.00,WeatherDisplay:10.37,2013-02-07 18:43:00,
2013-02-07 12:48:00,52.0,26.5,27.22,NW,315,12.7,12.7,37,0.00,CLR,,0.00,WeatherDisplay:10.37,2013-02-07 18:48:00,
2013-02-07 12:53:00,52.2,25.3,27.23,NW,315,10.4,10.4,35,0.00,CLR,,0.00,WeatherDisplay:10.37,2013-02-07 18:53:00,
2013-02-07 12:58:00,52.5,24.2,27.22,NW,315,15.0,15.0,33,0.00,CLR,,0.00,WeatherDisplay:10.37,2013-02-07 18:58:00,
2013-02-07 13:03:00,52.5,22.7,27.22,NW,315,9.2,9.2,31,0.00,CLR,,0.00,WeatherDisplay:10.37,2013-02-07 19:03:00,
2013-02-07 13:08:00,52.7,20.5,27.22,NW,315,10.4,10.4,28,0.00,CLR,,0.00,WeatherDisplay:10.37,2013-02-07 19:08:00,
2013-02-07 13:13:00,53.2,20.9,27.22,WNW,292,11.5,11.5,28,0.00,CLR,,0.00,WeatherDisplay:10.37,2013-02-07 19:13:00,
2013-02-07 13:18:00,53.4,21.1,27.22,North,0,12.7,12.7,28,0.00,CLR,,0.00,WeatherDisplay:10.37,2013-02-07 19:18:00,
2013-02-07 13:24:00,54.0,20.7,27.22,NNW,338,10.4,10.4,27,0.00,CLR,,0.00,WeatherDisplay:10.37,2013-02-07 19:24:00,
2013-02-07 13:29:00,53.4,19.3,27.22,NW,315,9.2,9.2,26,0.00,CLR,,0.00,WeatherDisplay:10.37,2013-02-07 19:29:00,
2013-02-07 13:34:00,53.8,19.7,27.22,NW,315,12.7,12.7,26,0.00,CLR,,0.00,WeatherDisplay:10.37,2013-02-07 19:34:00,
2013-02-07 13:39:00,54.0,19.8,27.21,North,0,5.8,5.8,26,0.00,CLR,,0.00,WeatherDisplay:10.37,2013-02-07 19:39:00,
2013-02-07 13:44:00,54.0,18.9,27.22,North,0,10.4,10.4,25,0.00,CLR,,0.00,WeatherDisplay:10.37,2013-02-07 19:44:00,
2013-02-07 13:49:00,54.1,18.1,27.22,North,0,10.4,10.4,24,0.00,CLR,,0.00,WeatherDisplay:10.37,2013-02-07 19:49:00,
2013-02-07 13:54:00,54.0,17.9,27.21,NW,315,11.5,11.5,24,0.00,CLR,,0.00,WeatherDisplay:10.37,2013-02-07 19:54:00,
2013-02-07 13:59:00,54.1,18.1,27.22,NW,315,8.1,8.1,24,0.00,CLR,,0.00,WeatherDisplay:10.37,2013-02-07 19:59:00,
2013-02-07 14:04:00,54.3,18.2,27.22,North,0,10.4,10.4,24,0.00,CLR,,0.00,WeatherDisplay:10.37,2013-02-07 20:04:00,
2013-02-07 14:09:00,54.1,17.1,27.21,NW,315,9.2,9.2,23,0.00,CLR,,0.00,WeatherDisplay:10.37,2013-02-07 20:09:00,
2013-02-07 14:14:00,54.1,17.1,27.21,NW,315,9.2,9.2,23,0.00,CLR,,0.00,WeatherDisplay:10.37,2013-02-07 20:14:00,
2013-02-07 14:19:00,54.1,16.1,27.21,NW,315,8.1,8.1,22,0.00,CLR,,0.00,WeatherDisplay:10.37,2013-02-07 20:19:00,
2013-02-07 14:24:00,54.1,16.1,27.21,NW,315,5.8,5.8,22,0.00,CLR,,0.00,WeatherDisplay:10.37,2013-02-07 20:24:00,
2013-02-07 14:29:00,54.3,16.2,27.21,North,0,10.4,10.4,22,0.00,CLR,,0.00,WeatherDisplay:10.37,2013-02-07 20:29:00,
2013-02-07 14:34:00,54.5,16.4,27.21,WSW,248,6.9,6.9,22,0.00,CLR,,0.00,WeatherDisplay:10.37,2013-02-07 20:34:00,
2013-02-07 14:39:00,54.7,16.5,27.21,NW,315,6.9,6.9,22,0.00,CLR,,0.00,WeatherDisplay:10.37,2013-02-07 20:39:00,
2013-02-07 14:44:00,54.5,16.4,27.21,NW,315,9.2,9.2,22,0.00,CLR,,0.00,WeatherDisplay:10.37,2013-02-07 20:44:00,
2013-02-07 14:49:00,54.5,16.4,27.20,NNW,338,15.0,15.0,22,0.00,CLR,,0.00,WeatherDisplay:10.37,2013-02-07 20:49:00,
2013-02-07 14:54:00,54.5,16.4,27.20,NW,315,5.8,5.8,22,0.00,CLR,,0.00,WeatherDisplay:10.37,2013-02-07 20:54:00,
2013-02-07 14:59:00,54.5,15.3,27.20,WNW,292,8.1,8.1,21,0.00,CLR,,0.00,WeatherDisplay:10.37,2013-02-07 20:59:00,
2013-02-07 15:04:00,54.7,15.5,27.20,NW,315,8.1,8.1,21,0.00,CLR,,0.00,WeatherDisplay:10.37,2013-02-07 21:04:00,
2013-02-07 15:09:00,54.7,15.5,27.20,NW,315,10.4,10.4,21,0.00,CLR,,0.00,WeatherDisplay:10.37,2013-02-07 21:09:00,
2013-02-07 15:14:00,54.5,15.3,27.21,North,0,8.1,8.1,21,0.00,CLR,,0.00,WeatherDisplay:10.37,2013-02-07 21:14:00,
2013-02-07 15:19:00,54.7,15.5,27.20,NW,315,6.9,6.9,21,0.00,CLR,,0.00,WeatherDisplay:10.37,2013-02-07 21:19:00,
2013-02-07 15:24:00,54.7,15.5,27.20,NW,315,5.8,6.0,21,0.00,CLR,,0.00,WeatherDisplay:10.37,2013-02-07 21:24:00,
2013-02-07 15:29:00,54.5,15.3,27.20,NW,315,8.1,8.1,21,0.00,CLR,,0.00,WeatherDisplay:10.37,2013-02-07 21:29:00,
2013-02-07 15:34:00,54.5,15.3,27.20,SW,225,3.5,4.5,21,0.00,CLR,,0.00,WeatherDisplay:10.37,2013-02-07 21:34:00,
2013-02-07 15:39:00,54.3,15.2,27.21,North,0,9.2,9.2,21,0.00,CLR,,0.00,WeatherDisplay:10.37,2013-02-07 21:39:00,
2013-02-07 15:44:00,54.3,15.2,27.20,North,0,8.1,8.1,21,0.00,CLR,,0.00,WeatherDisplay:10.37,2013-02-07 21:44:00,
2013-02-07 15:49:00,54.1,15.0,27.20,NW,315,8.1,8.1,21,0.00,CLR,,0.00,WeatherDisplay:10.37,2013-02-07 21:49:00,
2013-02-07 15:54:00,54.1,15.0,27.20,NW,315,9.2,9.2,21,0.00,CLR,,0.00,WeatherDisplay:10.37,2013-02-07 21:54:00,
2013-02-07 15:59:00,54.0,14.9,27.20,SE,135,6.9,6.9,21,0.00,CLR,,0.00,WeatherDisplay:10.37,2013-02-07 21:59:00,
2013-02-07 16:04:00,54.0,14.9,27.20,SE,135,5.8,5.8,21,0.00,CLR,,0.00,WeatherDisplay:10.37,2013-02-07 22:04:00,
2013-02-07 16:09:00,54.0,14.9,27.20,North,0,9.2,9.2,21,0.00,CLR,,0.00,WeatherDisplay:10.37,2013-02-07 22:09:00,
2013-02-07 16:14:00,53.8,14.7,27.20,NNW,338,8.1,8.1,21,0.00,CLR,,0.00,WeatherDisplay:10.37,2013-02-07 22:14:00,
2013-02-07 16:19:00,53.6,14.5,27.20,North,0,8.1,8.1,21,0.00,CLR,,0.00,WeatherDisplay:10.37,2013-02-07 22:19:00,
2013-02-07 16:24:00,53.6,14.5,27.20,North,0,4.6,4.6,21,0.00,CLR,,0.00,WeatherDisplay:10.37,2013-02-07 22:24:00,
2013-02-07 16:29:00,53.4,15.5,27.20,NW,315,4.6,4.6,22,0.00,CLR,,0.00,WeatherDisplay:10.37,2013-02-07 22:29:00,
2013-02-07 16:34:00,53.4,15.5,27.20,NW,315,4.6,4.6,22,0.00,CLR,,0.00,WeatherDisplay:10.37,2013-02-07 22:34:00,
2013-02-07 16:39:00,53.4,15.5,27.20,NW,315,4.6,4.6,22,0.00,CLR,,0.00,WeatherDisplay:10.37,2013-02-07 22:39:00,
2013-02-07 16:44:00,53.2,15.3,27.20,West,270,5.8,5.8,22,0.00,CLR,,0.00,WeatherDisplay:10.37,2013-02-07 22:44:00,
2013-02-07 16:49:00,53.1,15.2,27.20,NW,315,5.8,5.8,22,0.00,CLR,,0.00,WeatherDisplay:10.37,2013-02-07 22:49:00,
2013-02-07 16:54:00,53.1,15.2,27.20,NW,315,4.6,4.6,22,0.00,CLR,,0.00,WeatherDisplay:10.37,2013-02-07 22:54:00,
2013-02-07 16:59:00,52.9,15.0,27.20,North,0,4.6,4.6,22,0.00,CLR,,0.00,WeatherDisplay:10.37,2013-02-07 22:59:00,
2013-02-07 17:04:00,52.7,14.9,27.20,NW,315,3.5,3.5,22,0.00,CLR,,0.00,WeatherDisplay:10.37,2013-02-07 23:04:00,
2013-02-07 17:09:00,52.3,14.6,27.20,NW,315,9.2,9.2,22,0.00,CLR,,0.00,WeatherDisplay:10.37,2013-02-07 23:09:00,
2013-02-07 17:14:00,52.2,15.4,27.20,North,0,4.6,4.6,23,0.00,CLR,,0.00,WeatherDisplay:10.37,2013-02-07 23:14:00,
2013-02-07 17:19:00,52.2,15.4,27.21,NW,315,3.5,3.5,23,0.00,CLR,,0.00,WeatherDisplay:10.37,2013-02-07 23:19:00,
2013-02-07 17:24:00,52.0,15.3,27.21,NW,315,3.5,3.5,23,0.00,CLR,,0.00,WeatherDisplay:10.37,2013-02-07 23:24:00,
2013-02-07 17:29:00,51.6,15.9,27.21,North,0,3.5,3.5,24,0.00,CLR,,0.00,WeatherDisplay:10.37,2013-02-07 23:29:00,
2013-02-07 17:34:00,51.4,15.8,27.21,North,0,3.5,0.0,24,0.00,CLR,,0.00,WeatherDisplay:10.37,2013-02-07 23:34:00,
2013-02-07 17:39:00,50.7,14.2,27.21,NW,315,1.1,1.1,23,0.00,CLR,,0.00,WeatherDisplay:10.37,2013-02-07 23:39:00,
2013-02-07 17:44:00,50.5,14.1,27.21,NW,315,2.3,2.3,23,0.00,CLR,,0.00,WeatherDisplay:10.37,2013-02-07 23:44:00,
2013-02-07 17:49:00,50.2,13.7,27.21,NW,315,1.1,1.1,23,0.00,CLR,,0.00,WeatherDisplay:10.37,2013-02-07 23:49:00,
2013-02-07 17:54:00,49.8,15.4,27.22,NW,315,0.0,0.0,25,0.00,CLR,,0.00,WeatherDisplay:10.37,2013-02-07 23:54:00,
2013-02-07 18:00:00,49.3,14.9,27.22,NW,315,0.0,0.0,25,0.00,CLR,,0.00,WeatherDisplay:10.37,2013-02-08 00:00:00,
2013-02-07 18:05:00,49.3,14.9,27.22,NW,315,0.0,0.0,25,0.00,CLR,,0.00,WeatherDisplay:10.37,2013-02-08 00:05:00,
2013-02-07 18:10:00,48.2,14.9,27.22,NW,315,0.0,0.0,26,0.00,CLR,,0.00,WeatherDisplay:10.37,2013-02-08 00:10:00,
2013-02-07 18:15:00,47.5,15.9,27.22,NW,315,0.0,0.0,28,0.00,CLR,,0.00,WeatherDisplay:10.37,2013-02-08 00:15:00,
2013-02-07 18:20:00,46.6,17.5,27.22,NW,315,0.0,0.0,31,0.00,CLR,,0.00,WeatherDisplay:10.37,2013-02-08 00:20:00,
2013-02-07 18:25:00,45.7,16.7,27.22,SE,135,0.0,0.0,31,0.00,CLR,,0.00,WeatherDisplay:10.37,2013-02-08 00:25:00,
2013-02-07 18:30:00,44.8,17.4,27.23,SE,135,0.0,0.0,33,0.00,CLR,,0.00,WeatherDisplay:10.37,2013-02-08 00:30:00,
2013-02-07 18:35:00,43.9,17.3,27.23,North,0,2.3,0.0,34,0.00,CLR,,0.00,WeatherDisplay:10.37,2013-02-08 00:35:00,
2013-02-07 18:40:00,43.3,18.1,27.23,North,0,0.0,0.0,36,0.00,CLR,,0.00,WeatherDisplay:10.37,2013-02-08 00:40:00,
2013-02-07 18:45:00,42.8,18.9,27.23,North,0,0.0,0.0,38,0.00,CLR,,0.00,WeatherDisplay:10.37,2013-02-08 00:45:00,
2013-02-07 18:50:00,42.3,19.6,27.23,North,0,0.0,0.0,40,0.00,CLR,,0.00,WeatherDisplay:10.37,2013-02-08 00:50:00,
2013-02-07 18:55:00,41.7,19.7,27.23,North,0,0.0,0.0,41,0.00,CLR,,0.00,WeatherDisplay:10.37,2013-02-08 00:55:00,
2013-02-07 19:00:00,41.4,20.0,27.24,North,0,0.0,0.0,42,0.00,CLR,,0.00,WeatherDisplay:10.37,2013-02-08 01:00:00,
2013-02-07 19:05:00,40.8,20.6,27.23,North,0,0.0,0.0,44,0.00,CLR,,0.00,WeatherDisplay:10.37,2013-02-08 01:05:00,
2013-02-07 19:10:00,40.3,20.1,27.24,NW,315,0.0,0.0,44,0.00,CLR,,0.00,WeatherDisplay:10.37,2013-02-08 01:10:00,
2013-02-07 19:15:00,39.6,19.9,27.24,NW,315,0.0,0.0,45,0.00,CLR,,0.00,WeatherDisplay:10.37,2013-02-08 01:15:00,
2013-02-07 19:20:00,39.0,20.0,27.24,NW,315,0.0,0.0,46,0.00,CLR,,0.00,WeatherDisplay:10.37,2013-02-08 01:20:00,
2013-02-07 19:25:00,38.7,20.1,27.24,NW,315,0.0,0.0,47,0.00,CLR,,0.00,WeatherDisplay:10.37,2013-02-08 01:25:00,
2013-02-07 19:30:00,37.9,20.0,27.24,NW,315,0.0,0.0,48,0.00,CLR,,0.00,WeatherDisplay:10.37,2013-02-08 01:30:00,
2013-02-07 19:35:00,37.2,17.3,27.24,NW,315,0.0,0.0,44,0.00,CLR,,0.00,WeatherDisplay:10.37,2013-02-08 01:35:00,
2013-02-07 19:40:00,36.7,16.8,27.24,NW,315,0.0,0.0,44,0.00,CLR,,0.00,WeatherDisplay:10.37,2013-02-08 01:40:00,
2013-02-07 19:45:00,36.3,17.0,27.24,NW,315,0.0,0.0,45,0.00,CLR,,0.00,WeatherDisplay:10.37,2013-02-08 01:45:00,
2013-02-07 19:50:00,36.0,17.2,27.24,NW,315,0.0,0.0,46,0.00,CLR,,0.00,WeatherDisplay:10.37,2013-02-08 01:50:00,
2013-02-07 19:55:00,35.4,17.2,27.24,NW,315,0.0,0.0,47,0.00,CLR,,0.00,WeatherDisplay:10.37,2013-02-08 01:55:00,
2013-02-07 20:00:00,34.9,16.7,27.24,NW,315,0.0,0.0,47,0.00,CLR,,0.00,WeatherDisplay:10.37,2013-02-08 02:00:00,
2013-02-07 20:05:00,34.9,16.7,27.24,NW,315,0.0,0.0,47,0.00,CLR,,0.00,WeatherDisplay:10.37,2013-02-08 02:05:00,
2013-02-07 20:10:00,33.8,16.2,27.24,South,180,0.0,0.0,48,0.00,CLR,,0.00,WeatherDisplay:10.37,2013-02-08 02:10:00,
2013-02-07 20:15:00,33.3,16.1,27.24,South,180,0.0,0.0,49,0.00,CLR,,0.00,WeatherDisplay:10.37,2013-02-08 02:15:00,
2013-02-07 20:20:00,32.9,16.3,27.24,North,0,0.0,0.0,50,0.00,CLR,,0.00,WeatherDisplay:10.37,2013-02-08 02:20:00,
2013-02-07 20:25:00,32.7,16.6,27.24,North,0,0.0,0.0,51,0.00,CLR,,0.00,WeatherDisplay:10.37,2013-02-08 02:25:00,
2013-02-07 20:30:00,32.7,17.0,27.24,North,0,0.0,0.0,52,0.00,CLR,,0.00,WeatherDisplay:10.37,2013-02-08 02:30:00,
2013-02-07 20:35:00,32.5,16.8,27.24,South,180,0.0,0.0,52,0.00,CLR,,0.00,WeatherDisplay:10.37,2013-02-08 02:35:00,
2013-02-07 20:40:00,32.0,16.8,27.24,South,180,0.0,0.0,53,0.00,CLR,,0.00,WeatherDisplay:10.37,2013-02-08 02:40:00,
2013-02-07 20:45:00,31.6,16.9,27.25,South,180,0.0,0.0,54,0.00,CLR,,0.00,WeatherDisplay:10.37,2013-02-08 02:45:00,
2013-02-07 20:50:00,31.3,16.5,27.25,South,180,0.0,0.0,54,0.00,CLR,,0.00,WeatherDisplay:10.37,2013-02-08 02:50:00,
2013-02-07 20:55:00,31.1,16.4,27.25,South,180,0.0,0.0,54,0.00,CLR,,0.00,WeatherDisplay:10.37,2013-02-08 02:55:00,
2013-02-07 21:00:00,30.9,16.2,27.25,South,180,0.0,0.0,54,0.00,CLR,,0.00,WeatherDisplay:10.37,2013-02-08 03:00:00,
2013-02-07 21:05:00,30.6,15.9,27.25,South,180,0.0,0.0,54,0.00,CLR,,0.00,WeatherDisplay:10.37,2013-02-08 03:05:00,
2013-02-07 21:10:00,30.2,15.5,27.25,East,90,0.0,0.0,54,0.00,CLR,,0.00,WeatherDisplay:10.37,2013-02-08 03:10:00,
2013-02-07 21:15:00,30.0,15.8,27.26,East,90,0.0,0.0,55,0.00,CLR,,0.00,WeatherDisplay:10.37,2013-02-08 03:15:00,
2013-02-07 21:20:00,29.7,15.5,27.25,East,90,0.0,0.0,55,0.00,CLR,,0.00,WeatherDisplay:10.37,2013-02-08 03:20:00,
2013-02-07 21:25:00,29.5,15.3,27.25,East,90,0.0,0.0,55,0.00,CLR,,0.00,WeatherDisplay:10.37,2013-02-08 03:25:00,
2013-02-07 21:30:00,29.3,15.1,27.25,East,90,0.0,0.0,55,0.00,CLR,,0.00,WeatherDisplay:10.37,2013-02-08 03:30:00,
2013-02-07 21:35:00,29.1,14.9,27.25,East,90,0.0,0.0,55,0.00,CLR,,0.00,WeatherDisplay:10.37,2013-02-08 03:35:00,
2013-02-07 21:40:00,28.8,15.0,27.25,SE,135,0.0,0.0,56,0.00,CLR,,0.00,WeatherDisplay:10.37,2013-02-08 03:40:00,
2013-02-07 21:45:00,28.4,14.7,27.25,South,180,0.0,0.0,56,0.00,CLR,,0.00,WeatherDisplay:10.37,2013-02-08 03:45:00,
2013-02-07 21:50:00,28.0,12.2,27.25,South,180,0.0,0.0,51,0.00,CLR,,0.00,WeatherDisplay:10.37,2013-02-08 03:50:00,
2013-02-07 21:55:00,27.9,12.5,27.25,East,90,0.0,0.0,52,0.00,CLR,,0.00,WeatherDisplay:10.37,2013-02-08 03:55:00,
2013-02-07 22:00:00,27.5,12.2,27.25,SE,135,0.0,0.0,52,0.00,CLR,,0.00,WeatherDisplay:10.37,2013-02-08 04:00:00,
2013-02-07 22:05:00,27.5,12.2,27.25,SE,135,0.0,0.0,52,0.00,CLR,,0.00,WeatherDisplay:10.37,2013-02-08 04:05:00,
2013-02-07 22:10:00,27.1,11.8,27.25,SE,135,0.0,0.0,52,0.00,CLR,,0.00,WeatherDisplay:10.37,2013-02-08 04:10:00,
2013-02-07 22:15:00,27.1,11.8,27.25,SE,135,0.0,0.0,52,0.00,CLR,,0.00,WeatherDisplay:10.37,2013-02-08 04:15:00,
2013-02-07 22:20:00,27.0,11.7,27.26,SW,225,0.0,0.0,52,0.00,CLR,,0.00,WeatherDisplay:10.37,2013-02-08 04:20:00,
2013-02-07 22:25:00,26.8,11.9,27.26,SW,225,0.0,0.0,53,0.00,CLR,,0.00,WeatherDisplay:10.37,2013-02-08 04:25:00,
2013-02-07 22:30:00,26.6,11.7,27.26,SW,225,0.0,0.0,53,0.00,CLR,,0.00,WeatherDisplay:10.37,2013-02-08 04:30:00,
2013-02-07 22:35:00,26.4,12.0,27.26,SW,225,0.0,0.0,54,0.00,CLR,,0.00,WeatherDisplay:10.37,2013-02-08 04:35:00,
2013-02-07 22:40:00,26.4,12.4,27.26,SW,225,0.0,0.0,55,0.00,CLR,,0.00,WeatherDisplay:10.37,2013-02-08 04:40:00,
2013-02-07 22:45:00,26.2,12.7,27.26,SW,225,0.0,0.0,56,0.00,CLR,,0.00,WeatherDisplay:10.37,2013-02-08 04:45:00,
2013-02-07 22:50:00,26.1,12.9,27.26,SW,225,0.0,0.0,57,0.00,CLR,,0.00,WeatherDisplay:10.37,2013-02-08 04:50:00,
2013-02-07 22:55:00,25.7,12.2,27.25,SE,135,0.0,0.0,56,0.00,CLR,,0.00,WeatherDisplay:10.37,2013-02-08 04:55:00,
2013-02-07 23:00:00,25.5,12.0,27.25,SE,135,0.0,0.0,56,0.00,CLR,,0.00,WeatherDisplay:10.37,2013-02-08 05:00:00,
2013-02-07 23:05:00,25.2,11.6,27.25,SE,135,0.0,0.0,56,0.00,CLR,,0.00,WeatherDisplay:10.37,2013-02-08 05:05:00,
2013-02-07 23:10:00,25.0,11.5,27.25,SE,135,0.0,0.0,56,0.00,CLR,,0.00,WeatherDisplay:10.37,2013-02-08 05:10:00,
2013-02-07 23:15:00,24.6,11.5,27.25,South,180,0.0,0.0,57,0.00,CLR,,0.00,WeatherDisplay:10.37,2013-02-08 05:15:00,
2013-02-07 23:20:00,24.4,11.4,27.25,South,180,0.0,0.0,57,0.00,CLR,,0.00,WeatherDisplay:10.37,2013-02-08 05:20:00,
2013-02-07 23:25:00,24.3,11.6,27.25,South,180,0.0,0.0,58,0.00,CLR,,0.00,WeatherDisplay:10.37,2013-02-08 05:25:00,
2013-02-07 23:30:00,24.3,11.6,27.25,South,180,0.0,0.0,58,0.00,CLR,,0.00,WeatherDisplay:10.37,2013-02-08 05:30:00,
2013-02-07 23:35:00,24.1,11.4,27.25,South,180,0.0,0.0,58,0.00,CLR,,0.00,WeatherDisplay:10.37,2013-02-08 05:35:00,
2013-02-07 23:40:00,24.1,11.4,27.25,South,180,0.0,0.0,58,0.00,CLR,,0.00,WeatherDisplay:10.37,2013-02-08 05:40:00,
2013-02-07 23:45:00,23.9,11.6,27.25,South,180,0.0,0.0,59,0.00,CLR,,0.00,WeatherDisplay:10.37,2013-02-08 05:45:00,
2013-02-07 23:50:00,23.9,12.0,27.25,South,180,0.0,0.0,60,0.00,CLR,,0.00,WeatherDisplay:10.37,2013-02-08 05:50:00,
2013-02-07 23:55:00,23.7,11.8,27.25,South,180,0.0,0.0,60,0.00,CLR,,0.00,WeatherDisplay:10.37,2013-02-08 05:55:00,